Year,Month,Day,Hour,Minute,Value (Times are PST for temperature in C)
2007,09,01,00,00,12.70
2007,09,01,00,01,12.60
2007,09,01,00,02,12.60
2007,09,01,00,03,12.60
2007,09,01,00,04,12.50
2007,09,01,00,05,12.50
2007,09,01,00,06,12.50
2007,09,01,00,07,12.50
2007,09,01,00,08,12.40
2007,09,01,00,09,12.40
2007,09,01,00,10,12.40
2007,09,01,00,11,12.40
2007,09,01,00,12,12.40
2007,09,01,00,13,12.50
2007,09,01,00,14,12.50
2007,09,01,00,15,12.50
2007,09,01,00,16,12.50
2007,09,01,00,17,12.50
2007,09,01,00,18,12.50
2007,09,01,00,19,12.50
2007,09,01,00,20,12.40
2007,09,01,00,21,12.40
2007,09,01,00,22,12.40
2007,09,01,00,23,12.50
2007,09,01,00,24,12.50
2007,09,01,00,25,12.50
2007,09,01,00,26,12.50
2007,09,01,00,27,12.50
2007,09,01,00,28,12.50
2007,09,01,00,29,12.60
2007,09,01,00,30,12.60
2007,09,01,00,31,12.60
2007,09,01,00,32,12.60
2007,09,01,00,33,12.60
2007,09,01,00,34,12.60
2007,09,01,00,35,12.60
2007,09,01,00,36,12.50
2007,09,01,00,37,12.50
2007,09,01,00,38,12.40
2007,09,01,00,39,12.40
2007,09,01,00,40,12.30
2007,09,01,00,41,12.30
2007,09,01,00,42,12.30
2007,09,01,00,43,12.30
2007,09,01,00,44,12.30
2007,09,01,00,45,12.30
2007,09,01,00,46,12.30
2007,09,01,00,47,12.30
2007,09,01,00,48,12.30
2007,09,01,00,49,12.30
2007,09,01,00,50,12.30
2007,09,01,00,51,12.40
2007,09,01,00,52,12.40
2007,09,01,00,53,12.40
2007,09,01,00,54,12.40
2007,09,01,00,55,12.40
2007,09,01,00,56,12.40
2007,09,01,00,57,12.30
2007,09,01,00,58,12.30
2007,09,01,00,59,12.30
2007,09,01,01,00,12.30
2007,09,01,01,01,12.20
2007,09,01,01,02,12.20
2007,09,01,01,03,12.20
2007,09,01,01,04,12.20
2007,09,01,01,05,12.10
2007,09,01,01,06,12.10
2007,09,01,01,07,12.10
2007,09,01,01,08,12.10
2007,09,01,01,09,12.00
2007,09,01,01,10,12.00
2007,09,01,01,11,12.00
2007,09,01,01,12,11.90
2007,09,01,01,13,11.90
2007,09,01,01,14,11.90
2007,09,01,01,15,11.90
2007,09,01,01,16,11.80
2007,09,01,01,17,11.80
2007,09,01,01,18,11.80
2007,09,01,01,19,11.80
2007,09,01,01,20,11.70
2007,09,01,01,21,11.70
2007,09,01,01,22,11.70
2007,09,01,01,23,11.70
2007,09,01,01,24,11.70
2007,09,01,01,25,11.70
2007,09,01,01,26,11.70
2007,09,01,01,27,11.70
2007,09,01,01,28,11.70
2007,09,01,01,29,11.60
2007,09,01,01,30,11.60
2007,09,01,01,31,11.60
2007,09,01,01,32,11.60
2007,09,01,01,33,11.60
2007,09,01,01,34,11.60
2007,09,01,01,35,11.60
2007,09,01,01,36,11.60
2007,09,01,01,37,11.60
2007,09,01,01,38,11.60
2007,09,01,01,39,11.50
2007,09,01,01,40,11.50
2007,09,01,01,41,11.50
2007,09,01,01,42,11.50
2007,09,01,01,43,11.50
2007,09,01,01,44,11.50
2007,09,01,01,45,11.60
2007,09,01,01,46,11.60
2007,09,01,01,47,11.60
2007,09,01,01,48,11.60
2007,09,01,01,49,11.60
2007,09,01,01,50,11.60
2007,09,01,01,51,11.60
2007,09,01,01,52,11.60
2007,09,01,01,53,11.60
2007,09,01,01,54,11.60
2007,09,01,01,55,11.60
2007,09,01,01,56,11.60
2007,09,01,01,57,11.60
2007,09,01,01,58,11.60
2007,09,01,01,59,11.60
2007,09,01,02,00,11.60
2007,09,01,02,01,11.60
2007,09,01,02,02,11.60
2007,09,01,02,03,11.60
2007,09,01,02,04,11.60
2007,09,01,02,05,11.60
2007,09,01,02,06,11.60
2007,09,01,02,07,11.60
2007,09,01,02,08,11.60
2007,09,01,02,09,11.70
2007,09,01,02,10,11.70
2007,09,01,02,11,11.70
2007,09,01,02,12,11.80
2007,09,01,02,13,11.80
2007,09,01,02,14,11.80
2007,09,01,02,15,11.90
2007,09,01,02,16,11.90
2007,09,01,02,17,11.90
2007,09,01,02,18,11.80
2007,09,01,02,19,11.80
2007,09,01,02,20,11.80
2007,09,01,02,21,11.80
2007,09,01,02,22,11.80
2007,09,01,02,23,11.80
2007,09,01,02,24,11.70
2007,09,01,02,25,11.70
2007,09,01,02,26,11.70
2007,09,01,02,27,11.70
2007,09,01,02,28,11.70
2007,09,01,02,29,11.70
2007,09,01,02,30,11.80
2007,09,01,02,31,11.80
2007,09,01,02,32,11.80
2007,09,01,02,33,11.80
2007,09,01,02,34,11.80
2007,09,01,02,35,11.80
2007,09,01,02,36,11.80
2007,09,01,02,37,11.80
2007,09,01,02,38,11.80
2007,09,01,02,39,11.70
2007,09,01,02,40,11.70
2007,09,01,02,41,11.60
2007,09,01,02,42,11.60
2007,09,01,02,43,11.60
2007,09,01,02,44,11.50
2007,09,01,02,45,11.50
2007,09,01,02,46,11.40
2007,09,01,02,47,11.40
2007,09,01,02,48,11.40
2007,09,01,02,49,11.30
2007,09,01,02,50,11.30
2007,09,01,02,51,11.20
2007,09,01,02,52,11.20
2007,09,01,02,53,11.20
2007,09,01,02,54,11.10
2007,09,01,02,55,11.10
2007,09,01,02,56,11.10
2007,09,01,02,57,11.10
2007,09,01,02,58,11.10
2007,09,01,02,59,11.10
2007,09,01,03,00,11.10
2007,09,01,03,01,11.00
2007,09,01,03,02,11.00
2007,09,01,03,03,11.00
2007,09,01,03,04,11.00
2007,09,01,03,05,11.00
2007,09,01,03,06,11.00
2007,09,01,03,07,11.00
2007,09,01,03,08,10.90
2007,09,01,03,09,10.90
2007,09,01,03,10,10.90
2007,09,01,03,11,10.90
2007,09,01,03,12,10.90
2007,09,01,03,13,10.90
2007,09,01,03,14,10.90
2007,09,01,03,15,10.90
2007,09,01,03,16,10.90
2007,09,01,03,17,10.90
2007,09,01,03,18,10.90
2007,09,01,03,19,10.90
2007,09,01,03,20,10.90
2007,09,01,03,21,10.90
2007,09,01,03,22,10.90
2007,09,01,03,23,10.90
2007,09,01,03,24,10.90
2007,09,01,03,25,10.90
2007,09,01,03,26,10.90
2007,09,01,03,27,10.90
2007,09,01,03,28,10.90
2007,09,01,03,29,10.90
2007,09,01,03,30,10.80
2007,09,01,03,31,10.80
2007,09,01,03,32,10.80
2007,09,01,03,33,10.80
2007,09,01,03,34,10.80
2007,09,01,03,35,10.80
2007,09,01,03,36,10.80
2007,09,01,03,37,10.80
2007,09,01,03,38,10.80
2007,09,01,03,39,10.80
2007,09,01,03,40,10.90
2007,09,01,03,41,10.90
2007,09,01,03,42,10.90
2007,09,01,03,43,10.90
2007,09,01,03,44,10.90
2007,09,01,03,45,10.90
2007,09,01,03,46,11.00
2007,09,01,03,47,11.00
2007,09,01,03,48,11.00
2007,09,01,03,49,10.90
2007,09,01,03,50,10.90
2007,09,01,03,51,10.90
2007,09,01,03,52,10.90
2007,09,01,03,53,10.90
2007,09,01,03,54,10.90
2007,09,01,03,55,10.90
2007,09,01,03,56,10.80
2007,09,01,03,57,10.80
2007,09,01,03,58,10.80
2007,09,01,03,59,10.80
2007,09,01,04,00,10.80
2007,09,01,04,01,10.70
2007,09,01,04,02,10.70
2007,09,01,04,03,10.70
2007,09,01,04,04,10.60
2007,09,01,04,05,10.60
2007,09,01,04,06,10.60
2007,09,01,04,07,10.60
2007,09,01,04,08,10.60
2007,09,01,04,09,10.60
2007,09,01,04,10,10.60
2007,09,01,04,11,10.60
2007,09,01,04,12,10.70
2007,09,01,04,13,10.70
2007,09,01,04,14,10.70
2007,09,01,04,15,10.80
2007,09,01,04,16,10.80
2007,09,01,04,17,10.80
2007,09,01,04,18,10.80
2007,09,01,04,19,10.80
2007,09,01,04,20,10.80
2007,09,01,04,21,10.80
2007,09,01,04,22,10.80
2007,09,01,04,23,10.80
2007,09,01,04,24,10.80
2007,09,01,04,25,10.70
2007,09,01,04,26,10.70
2007,09,01,04,27,10.70
2007,09,01,04,28,10.70
2007,09,01,04,29,10.60
2007,09,01,04,30,10.70
2007,09,01,04,31,10.60
2007,09,01,04,32,10.70
2007,09,01,04,33,10.70
2007,09,01,04,34,10.70
2007,09,01,04,35,10.70
2007,09,01,04,36,10.70
2007,09,01,04,37,10.70
2007,09,01,04,38,10.70
2007,09,01,04,39,10.80
2007,09,01,04,40,10.80
2007,09,01,04,41,10.70
2007,09,01,04,42,10.70
2007,09,01,04,43,10.70
2007,09,01,04,44,10.70
2007,09,01,04,45,10.60
2007,09,01,04,46,10.60
2007,09,01,04,47,10.60
2007,09,01,04,48,10.50
2007,09,01,04,49,10.50
2007,09,01,04,50,10.50
2007,09,01,04,51,10.40
2007,09,01,04,52,10.40
2007,09,01,04,53,10.40
2007,09,01,04,54,10.40
2007,09,01,04,55,10.40
2007,09,01,04,56,10.40
2007,09,01,04,57,10.40
2007,09,01,04,58,10.40
2007,09,01,04,59,10.50
2007,09,01,05,00,10.50
2007,09,01,05,01,10.50
2007,09,01,05,02,10.50
2007,09,01,05,03,10.50
2007,09,01,05,04,10.50
2007,09,01,05,05,10.50
2007,09,01,05,06,10.50
2007,09,01,05,07,10.60
2007,09,01,05,08,10.60
2007,09,01,05,09,10.60
2007,09,01,05,10,10.60
2007,09,01,05,11,10.60
2007,09,01,05,12,10.60
2007,09,01,05,13,10.60
2007,09,01,05,14,10.60
2007,09,01,05,15,10.50
2007,09,01,05,16,10.50
2007,09,01,05,17,10.50
2007,09,01,05,18,10.60
2007,09,01,05,19,10.60
2007,09,01,05,20,10.60
2007,09,01,05,21,10.60
2007,09,01,05,22,10.60
2007,09,01,05,23,10.60
2007,09,01,05,24,10.60
2007,09,01,05,25,10.60
2007,09,01,05,26,10.60
2007,09,01,05,27,10.60
2007,09,01,05,28,10.60
2007,09,01,05,29,10.60
2007,09,01,05,30,10.60
2007,09,01,05,31,10.60
2007,09,01,05,32,10.60
2007,09,01,05,33,10.60
2007,09,01,05,34,10.60
2007,09,01,05,35,10.60
2007,09,01,05,36,10.60
2007,09,01,05,37,10.60
2007,09,01,05,38,10.60
2007,09,01,05,39,10.70
2007,09,01,05,40,10.70
2007,09,01,05,41,10.70
2007,09,01,05,42,10.70
2007,09,01,05,43,10.70
2007,09,01,05,44,10.70
2007,09,01,05,45,10.70
2007,09,01,05,46,10.70
2007,09,01,05,47,10.70
2007,09,01,05,48,10.70
2007,09,01,05,49,10.70
2007,09,01,05,50,10.70
2007,09,01,05,51,10.70
2007,09,01,05,52,10.70
2007,09,01,05,53,10.70
2007,09,01,05,54,10.70
2007,09,01,05,55,10.70
2007,09,01,05,56,10.60
2007,09,01,05,57,10.60
2007,09,01,05,58,10.60
2007,09,01,05,59,10.60
2007,09,01,06,00,10.50
2007,09,01,06,01,10.50
2007,09,01,06,02,10.40
2007,09,01,06,03,10.40
2007,09,01,06,04,10.40
2007,09,01,06,05,10.40
2007,09,01,06,06,10.50
2007,09,01,06,07,10.50
2007,09,01,06,08,10.60
2007,09,01,06,09,10.60
2007,09,01,06,10,10.60
2007,09,01,06,11,10.60
2007,09,01,06,12,10.60
2007,09,01,06,13,10.60
2007,09,01,06,14,10.60
2007,09,01,06,15,10.60
2007,09,01,06,16,10.60
2007,09,01,06,17,10.60
2007,09,01,06,18,10.60
2007,09,01,06,19,10.60
2007,09,01,06,20,10.60
2007,09,01,06,21,10.60
2007,09,01,06,22,10.60
2007,09,01,06,23,10.60
2007,09,01,06,24,10.60
2007,09,01,06,25,10.60
2007,09,01,06,26,10.60
2007,09,01,06,27,10.60
2007,09,01,06,28,10.60
2007,09,01,06,29,10.60
2007,09,01,06,30,10.60
2007,09,01,06,31,10.60
2007,09,01,06,32,10.60
2007,09,01,06,33,10.60
2007,09,01,06,34,10.60
2007,09,01,06,35,10.60
2007,09,01,06,36,10.60
2007,09,01,06,37,10.60
2007,09,01,06,38,10.60
2007,09,01,06,39,10.60
2007,09,01,06,40,10.60
2007,09,01,06,41,10.60
2007,09,01,06,42,10.60
2007,09,01,06,43,10.60
2007,09,01,06,44,10.60
2007,09,01,06,45,10.60
2007,09,01,06,46,10.60
2007,09,01,06,47,10.60
2007,09,01,06,48,10.60
2007,09,01,06,49,10.60
2007,09,01,06,50,10.70
2007,09,01,06,51,10.70
2007,09,01,06,52,10.70
2007,09,01,06,53,10.70
2007,09,01,06,54,10.80
2007,09,01,06,55,10.80
2007,09,01,06,56,10.80
2007,09,01,06,57,10.80
2007,09,01,06,58,10.80
2007,09,01,06,59,10.80
2007,09,01,07,00,10.80
2007,09,01,07,01,10.80
2007,09,01,07,02,10.80
2007,09,01,07,03,10.80
2007,09,01,07,04,10.80
2007,09,01,07,05,10.80
2007,09,01,07,06,10.80
2007,09,01,07,07,10.80
2007,09,01,07,08,10.80
2007,09,01,07,09,10.80
2007,09,01,07,10,10.80
2007,09,01,07,11,10.90
2007,09,01,07,12,10.90
2007,09,01,07,13,11.00
2007,09,01,07,14,11.00
2007,09,01,07,15,11.00
2007,09,01,07,16,11.10
2007,09,01,07,17,11.10
2007,09,01,07,18,11.10
2007,09,01,07,19,11.10
2007,09,01,07,20,11.10
2007,09,01,07,21,11.10
2007,09,01,07,22,11.20
2007,09,01,07,23,11.20
2007,09,01,07,24,11.20
2007,09,01,07,25,11.30
2007,09,01,07,26,11.30
2007,09,01,07,27,11.30
2007,09,01,07,28,11.30
2007,09,01,07,29,11.30
2007,09,01,07,30,11.30
2007,09,01,07,31,11.40
2007,09,01,07,32,11.40
2007,09,01,07,33,11.40
2007,09,01,07,34,11.40
2007,09,01,07,35,11.40
2007,09,01,07,36,11.40
2007,09,01,07,37,11.40
2007,09,01,07,38,11.50
2007,09,01,07,39,11.50
2007,09,01,07,40,11.60
2007,09,01,07,41,11.60
2007,09,01,07,42,11.60
2007,09,01,07,43,11.60
2007,09,01,07,44,11.70
2007,09,01,07,45,11.70
2007,09,01,07,46,11.70
2007,09,01,07,47,11.70
2007,09,01,07,48,11.70
2007,09,01,07,49,11.70
2007,09,01,07,50,11.80
2007,09,01,07,51,11.80
2007,09,01,07,52,11.80
2007,09,01,07,53,11.80
2007,09,01,07,54,11.80
2007,09,01,07,55,11.90
2007,09,01,07,56,11.90
2007,09,01,07,57,11.90
2007,09,01,07,58,12.00
2007,09,01,07,59,12.00
2007,09,01,08,00,12.10
2007,09,01,08,01,12.20
2007,09,01,08,02,12.20
2007,09,01,08,03,12.20
2007,09,01,08,04,12.30
2007,09,01,08,05,12.30
2007,09,01,08,06,12.40
2007,09,01,08,07,12.40
2007,09,01,08,08,12.50
2007,09,01,08,09,12.50
2007,09,01,08,10,12.60
2007,09,01,08,11,12.70
2007,09,01,08,12,12.70
2007,09,01,08,13,12.80
2007,09,01,08,14,12.80
2007,09,01,08,15,12.80
2007,09,01,08,16,12.90
2007,09,01,08,17,12.90
2007,09,01,08,18,12.90
2007,09,01,08,19,13.00
2007,09,01,08,20,13.00
2007,09,01,08,21,13.10
2007,09,01,08,22,13.10
2007,09,01,08,23,13.10
2007,09,01,08,24,13.20
2007,09,01,08,25,13.20
2007,09,01,08,26,13.20
2007,09,01,08,27,13.30
2007,09,01,08,28,13.30
2007,09,01,08,29,13.30
2007,09,01,08,30,13.40
2007,09,01,08,31,13.40
2007,09,01,08,32,13.40
2007,09,01,08,33,13.40
2007,09,01,08,34,13.50
2007,09,01,08,35,13.50
2007,09,01,08,36,13.50
2007,09,01,08,37,13.60
2007,09,01,08,38,13.60
2007,09,01,08,39,13.60
2007,09,01,08,40,13.60
2007,09,01,08,41,13.60
2007,09,01,08,42,13.70
2007,09,01,08,43,13.70
2007,09,01,08,44,13.70
2007,09,01,08,45,13.70
2007,09,01,08,46,13.70
2007,09,01,08,47,13.70
2007,09,01,08,48,13.80
2007,09,01,08,49,13.80
2007,09,01,08,50,13.80
2007,09,01,08,51,13.80
2007,09,01,08,52,13.80
2007,09,01,08,53,13.80
2007,09,01,08,54,13.90
2007,09,01,08,55,13.90
2007,09,01,08,56,13.90
2007,09,01,08,57,13.90
2007,09,01,08,58,13.90
2007,09,01,08,59,13.90
2007,09,01,09,00,14.00
2007,09,01,09,01,14.00
2007,09,01,09,02,14.00
2007,09,01,09,03,14.10
2007,09,01,09,04,14.10
2007,09,01,09,05,14.10
2007,09,01,09,06,14.10
2007,09,01,09,07,14.10
2007,09,01,09,08,14.10
2007,09,01,09,09,14.10
2007,09,01,09,10,14.10
2007,09,01,09,11,14.10
2007,09,01,09,12,14.10
2007,09,01,09,13,14.10
2007,09,01,09,14,14.10
2007,09,01,09,15,14.10
2007,09,01,09,16,14.20
2007,09,01,09,17,14.20
2007,09,01,09,18,14.20
2007,09,01,09,19,14.20
2007,09,01,09,20,14.20
2007,09,01,09,21,14.20
2007,09,01,09,22,14.30
2007,09,01,09,23,14.40
2007,09,01,09,24,14.40
2007,09,01,09,25,14.50
2007,09,01,09,26,14.50
2007,09,01,09,27,14.60
2007,09,01,09,28,14.70
2007,09,01,09,29,14.70
2007,09,01,09,30,14.70
2007,09,01,09,31,14.70
2007,09,01,09,32,14.70
2007,09,01,09,33,14.70
2007,09,01,09,34,14.80
2007,09,01,09,35,14.80
2007,09,01,09,36,14.80
2007,09,01,09,37,14.80
2007,09,01,09,38,14.80
2007,09,01,09,39,14.80
2007,09,01,09,40,14.70
2007,09,01,09,41,14.70
2007,09,01,09,42,14.70
2007,09,01,09,43,14.60
2007,09,01,09,44,14.50
2007,09,01,09,45,14.50
2007,09,01,09,46,14.50
2007,09,01,09,47,14.50
2007,09,01,09,48,14.60
2007,09,01,09,49,14.60
2007,09,01,09,50,14.60
2007,09,01,09,51,14.70
2007,09,01,09,52,14.70
2007,09,01,09,53,14.60
2007,09,01,09,54,14.60
2007,09,01,09,55,14.60
2007,09,01,09,56,14.60
2007,09,01,09,57,14.60
2007,09,01,09,58,14.70
2007,09,01,09,59,14.70
2007,09,01,10,00,14.80
2007,09,01,10,01,14.90
2007,09,01,10,02,14.90
2007,09,01,10,03,14.90
2007,09,01,10,04,14.90
2007,09,01,10,05,14.90
2007,09,01,10,06,14.90
2007,09,01,10,07,14.90
2007,09,01,10,08,14.90
2007,09,01,10,09,14.90
2007,09,01,10,10,14.90
2007,09,01,10,11,14.80
2007,09,01,10,12,14.80
2007,09,01,10,13,14.80
2007,09,01,10,14,14.80
2007,09,01,10,15,14.90
2007,09,01,10,16,15.00
2007,09,01,10,17,15.00
2007,09,01,10,18,15.00
2007,09,01,10,19,15.00
2007,09,01,10,20,15.00
2007,09,01,10,21,15.00
2007,09,01,10,22,15.00
2007,09,01,10,23,14.90
2007,09,01,10,24,14.90
2007,09,01,10,25,15.00
2007,09,01,10,26,15.00
2007,09,01,10,27,15.00
2007,09,01,10,28,15.00
2007,09,01,10,29,15.00
2007,09,01,10,30,15.00
2007,09,01,10,31,15.00
2007,09,01,10,32,15.00
2007,09,01,10,33,15.00
2007,09,01,10,34,15.00
2007,09,01,10,35,15.00
2007,09,01,10,36,15.00
2007,09,01,10,37,15.00
2007,09,01,10,38,15.00
2007,09,01,10,39,15.00
2007,09,01,10,40,15.00
2007,09,01,10,41,15.00
2007,09,01,10,42,15.00
2007,09,01,10,43,15.10
2007,09,01,10,44,15.10
2007,09,01,10,45,15.20
2007,09,01,10,46,15.30
2007,09,01,10,47,15.30
2007,09,01,10,48,15.40
2007,09,01,10,49,15.40
2007,09,01,10,50,15.50
2007,09,01,10,51,15.60
2007,09,01,10,52,15.60
2007,09,01,10,53,15.60
2007,09,01,10,54,15.60
2007,09,01,10,55,15.60
2007,09,01,10,56,15.60
2007,09,01,10,57,15.60
2007,09,01,10,58,15.70
2007,09,01,10,59,15.80
2007,09,01,11,00,15.90
2007,09,01,11,01,15.90
2007,09,01,11,02,16.00
2007,09,01,11,03,16.10
2007,09,01,11,04,16.20
2007,09,01,11,05,16.20
2007,09,01,11,06,16.20
2007,09,01,11,07,16.30
2007,09,01,11,08,16.40
2007,09,01,11,09,16.40
2007,09,01,11,10,16.50
2007,09,01,11,11,16.60
2007,09,01,11,12,16.70
2007,09,01,11,13,16.80
2007,09,01,11,14,16.80
2007,09,01,11,15,16.90
2007,09,01,11,16,17.00
2007,09,01,11,17,17.00
2007,09,01,11,18,17.00
2007,09,01,11,19,17.00
2007,09,01,11,20,17.00
2007,09,01,11,21,17.00
2007,09,01,11,22,17.00
2007,09,01,11,23,17.00
2007,09,01,11,24,16.90
2007,09,01,11,25,16.90
2007,09,01,11,26,16.90
2007,09,01,11,27,16.90
2007,09,01,11,28,16.90
2007,09,01,11,29,16.80
2007,09,01,11,30,16.70
2007,09,01,11,31,16.60
2007,09,01,11,32,16.60
2007,09,01,11,33,16.50
2007,09,01,11,34,16.50
2007,09,01,11,35,16.50
2007,09,01,11,36,16.40
2007,09,01,11,37,16.50
2007,09,01,11,38,16.50
2007,09,01,11,39,16.60
2007,09,01,11,40,16.70
2007,09,01,11,41,16.80
2007,09,01,11,42,16.80
2007,09,01,11,43,16.80
2007,09,01,11,44,17.00
2007,09,01,11,45,17.10
2007,09,01,11,46,17.20
2007,09,01,11,47,17.20
2007,09,01,11,48,17.20
2007,09,01,11,49,17.30
2007,09,01,11,50,17.30
2007,09,01,11,51,17.40
2007,09,01,11,52,17.40
2007,09,01,11,53,17.40
2007,09,01,11,54,17.50
2007,09,01,11,55,17.50
2007,09,01,11,56,17.60
2007,09,01,11,57,17.50
2007,09,01,11,58,17.40
2007,09,01,11,59,17.30
2007,09,01,12,00,17.20
2007,09,01,12,01,17.10
2007,09,01,12,02,17.10
2007,09,01,12,03,17.00
2007,09,01,12,04,16.90
2007,09,01,12,05,16.90
2007,09,01,12,06,16.90
2007,09,01,12,07,16.80
2007,09,01,12,08,16.80
2007,09,01,12,09,16.80
2007,09,01,12,10,16.90
2007,09,01,12,11,17.00
2007,09,01,12,12,17.10
2007,09,01,12,13,17.30
2007,09,01,12,14,17.30
2007,09,01,12,15,17.30
2007,09,01,12,16,17.30
2007,09,01,12,17,17.30
2007,09,01,12,18,17.20
2007,09,01,12,19,17.20
2007,09,01,12,20,17.10
2007,09,01,12,21,17.10
2007,09,01,12,22,17.10
2007,09,01,12,23,17.20
2007,09,01,12,24,17.20
2007,09,01,12,25,17.30
2007,09,01,12,26,17.30
2007,09,01,12,27,17.40
2007,09,01,12,28,17.40
2007,09,01,12,29,17.50
2007,09,01,12,30,17.50
2007,09,01,12,31,17.50
2007,09,01,12,32,17.40
2007,09,01,12,33,17.40
2007,09,01,12,34,17.50
2007,09,01,12,35,17.50
2007,09,01,12,36,17.50
2007,09,01,12,37,17.60
2007,09,01,12,38,17.60
2007,09,01,12,39,17.70
2007,09,01,12,40,17.70
2007,09,01,12,41,17.60
2007,09,01,12,42,17.60
2007,09,01,12,43,17.60
2007,09,01,12,44,17.50
2007,09,01,12,45,17.60
2007,09,01,12,46,17.60
2007,09,01,12,47,17.70
2007,09,01,12,48,17.70
2007,09,01,12,49,17.70
2007,09,01,12,50,17.80
2007,09,01,12,51,17.90
2007,09,01,12,52,18.00
2007,09,01,12,53,18.00
2007,09,01,12,54,18.10
2007,09,01,12,55,18.20
2007,09,01,12,56,18.20
2007,09,01,12,57,18.20
2007,09,01,12,58,18.30
2007,09,01,12,59,18.30
2007,09,01,13,00,18.30
2007,09,01,13,01,18.30
2007,09,01,13,02,18.30
2007,09,01,13,03,18.40
2007,09,01,13,04,18.50
2007,09,01,13,05,18.60
2007,09,01,13,06,18.70
2007,09,01,13,07,18.80
2007,09,01,13,08,18.80
2007,09,01,13,09,18.80
2007,09,01,13,10,18.80
2007,09,01,13,11,18.70
2007,09,01,13,12,18.60
2007,09,01,13,13,18.50
2007,09,01,13,14,18.60
2007,09,01,13,15,18.60
2007,09,01,13,16,18.60
2007,09,01,13,17,18.60
2007,09,01,13,18,18.60
2007,09,01,13,19,18.70
2007,09,01,13,20,18.70
2007,09,01,13,21,18.70
2007,09,01,13,22,18.70
2007,09,01,13,23,18.80
2007,09,01,13,24,18.90
2007,09,01,13,25,18.90
2007,09,01,13,26,18.90
2007,09,01,13,27,18.90
2007,09,01,13,28,18.90
2007,09,01,13,29,19.00
2007,09,01,13,30,19.10
2007,09,01,13,31,19.10
2007,09,01,13,32,19.10
2007,09,01,13,33,19.00
2007,09,01,13,34,18.90
2007,09,01,13,35,18.90
2007,09,01,13,36,18.90
2007,09,01,13,37,18.80
2007,09,01,13,38,18.70
2007,09,01,13,39,18.70
2007,09,01,13,40,18.70
2007,09,01,13,41,18.70
2007,09,01,13,42,18.70
2007,09,01,13,43,18.70
2007,09,01,13,44,18.60
2007,09,01,13,45,18.60
2007,09,01,13,46,18.60
2007,09,01,13,47,18.50
2007,09,01,13,48,18.30
2007,09,01,13,49,18.20
2007,09,01,13,50,18.10
2007,09,01,13,51,18.00
2007,09,01,13,52,18.00
2007,09,01,13,53,17.90
2007,09,01,13,54,17.90
2007,09,01,13,55,18.00
2007,09,01,13,56,18.10
2007,09,01,13,57,18.00
2007,09,01,13,58,18.00
2007,09,01,13,59,17.90
2007,09,01,14,00,17.80
2007,09,01,14,01,17.70
2007,09,01,14,02,17.70
2007,09,01,14,03,17.60
2007,09,01,14,04,17.60
2007,09,01,14,05,17.60
2007,09,01,14,06,17.60
2007,09,01,14,07,17.60
2007,09,01,14,08,17.60
2007,09,01,14,09,17.60
2007,09,01,14,10,17.60
2007,09,01,14,11,17.60
2007,09,01,14,12,17.70
2007,09,01,14,13,17.70
2007,09,01,14,14,17.80
2007,09,01,14,15,17.90
2007,09,01,14,16,18.00
2007,09,01,14,17,18.10
2007,09,01,14,18,18.20
2007,09,01,14,19,18.20
2007,09,01,14,20,18.30
2007,09,01,14,21,18.30
2007,09,01,14,22,18.30
2007,09,01,14,23,18.30
2007,09,01,14,24,18.30
2007,09,01,14,25,18.30
2007,09,01,14,26,18.30
2007,09,01,14,27,18.40
2007,09,01,14,28,18.50
2007,09,01,14,29,18.60
2007,09,01,14,30,18.60
2007,09,01,14,31,18.70
2007,09,01,14,32,18.80
2007,09,01,14,33,18.80
2007,09,01,14,34,18.90
2007,09,01,14,35,18.90
2007,09,01,14,36,18.90
2007,09,01,14,37,18.90
2007,09,01,14,38,18.90
2007,09,01,14,39,19.00
2007,09,01,14,40,19.00
2007,09,01,14,41,19.10
2007,09,01,14,42,19.10
2007,09,01,14,43,19.00
2007,09,01,14,44,18.90
2007,09,01,14,45,18.80
2007,09,01,14,46,18.80
2007,09,01,14,47,18.70
2007,09,01,14,48,18.70
2007,09,01,14,49,18.60
2007,09,01,14,50,18.60
2007,09,01,14,51,18.60
2007,09,01,14,52,18.50
2007,09,01,14,53,18.40
2007,09,01,14,54,18.40
2007,09,01,14,55,18.40
2007,09,01,14,56,18.40
2007,09,01,14,57,18.40
2007,09,01,14,58,18.50
2007,09,01,14,59,18.50
2007,09,01,15,00,18.60
2007,09,01,15,01,18.60
2007,09,01,15,02,18.70
2007,09,01,15,03,18.70
2007,09,01,15,04,18.80
2007,09,01,15,05,18.90
2007,09,01,15,06,19.00
2007,09,01,15,07,19.20
2007,09,01,15,08,19.30
2007,09,01,15,09,19.40
2007,09,01,15,10,19.50
2007,09,01,15,11,19.60
2007,09,01,15,12,19.70
2007,09,01,15,13,19.80
2007,09,01,15,14,19.90
2007,09,01,15,15,19.90
2007,09,01,15,16,19.90
2007,09,01,15,17,19.90
2007,09,01,15,18,19.90
2007,09,01,15,19,19.90
2007,09,01,15,20,19.80
2007,09,01,15,21,19.80
2007,09,01,15,22,19.60
2007,09,01,15,23,19.50
2007,09,01,15,24,19.40
2007,09,01,15,25,19.40
2007,09,01,15,26,19.30
2007,09,01,15,27,19.40
2007,09,01,15,28,19.40
2007,09,01,15,29,19.30
2007,09,01,15,30,19.30
2007,09,01,15,31,19.30
2007,09,01,15,32,19.30
2007,09,01,15,33,19.30
2007,09,01,15,34,19.20
2007,09,01,15,35,19.20
2007,09,01,15,36,19.20
2007,09,01,15,37,19.20
2007,09,01,15,38,19.20
2007,09,01,15,39,19.20
2007,09,01,15,40,19.20
2007,09,01,15,41,19.30
2007,09,01,15,42,19.30
2007,09,01,15,43,19.30
2007,09,01,15,44,19.40
2007,09,01,15,45,19.40
2007,09,01,15,46,19.50
2007,09,01,15,47,19.50
2007,09,01,15,48,19.50
2007,09,01,15,49,19.50
2007,09,01,15,50,19.40
2007,09,01,15,51,19.40
2007,09,01,15,52,19.40
2007,09,01,15,53,19.30
2007,09,01,15,54,19.30
2007,09,01,15,55,19.30
2007,09,01,15,56,19.30
2007,09,01,15,57,19.30
2007,09,01,15,58,19.30
2007,09,01,15,59,19.30
2007,09,01,16,00,19.30
2007,09,01,16,01,19.20
2007,09,01,16,02,19.20
2007,09,01,16,03,19.20
2007,09,01,16,04,19.10
2007,09,01,16,05,19.10
2007,09,01,16,06,19.10
2007,09,01,16,07,19.10
2007,09,01,16,08,19.00
2007,09,01,16,09,19.00
2007,09,01,16,10,18.90
2007,09,01,16,11,18.80
2007,09,01,16,12,18.80
2007,09,01,16,13,18.80
2007,09,01,16,14,18.80
2007,09,01,16,15,18.80
2007,09,01,16,16,18.90
2007,09,01,16,17,18.90
2007,09,01,16,18,19.00
2007,09,01,16,19,19.00
2007,09,01,16,20,19.00
2007,09,01,16,21,19.00
2007,09,01,16,22,19.10
2007,09,01,16,23,19.10
2007,09,01,16,24,19.10
2007,09,01,16,25,19.10
2007,09,01,16,26,19.00
2007,09,01,16,27,19.00
2007,09,01,16,28,18.90
2007,09,01,16,29,18.90
2007,09,01,16,30,18.90
2007,09,01,16,31,18.80
2007,09,01,16,32,18.80
2007,09,01,16,33,18.80
2007,09,01,16,34,18.80
2007,09,01,16,35,18.80
2007,09,01,16,36,18.80
2007,09,01,16,37,18.80
2007,09,01,16,38,18.80
2007,09,01,16,39,18.80
2007,09,01,16,40,18.80
2007,09,01,16,41,18.90
2007,09,01,16,42,18.90
2007,09,01,16,43,18.90
2007,09,01,16,44,18.90
2007,09,01,16,45,18.90
2007,09,01,16,46,18.90
2007,09,01,16,47,18.90
2007,09,01,16,48,18.80
2007,09,01,16,49,18.80
2007,09,01,16,50,18.80
2007,09,01,16,51,18.80
2007,09,01,16,52,18.80
2007,09,01,16,53,18.80
2007,09,01,16,54,18.70
2007,09,01,16,55,18.70
2007,09,01,16,56,18.70
2007,09,01,16,57,18.70
2007,09,01,16,58,18.70
2007,09,01,16,59,18.70
2007,09,01,17,00,18.70
2007,09,01,17,01,18.70
2007,09,01,17,02,18.70
2007,09,01,17,03,18.70
2007,09,01,17,04,18.60
2007,09,01,17,05,18.60
2007,09,01,17,06,18.60
2007,09,01,17,07,18.70
2007,09,01,17,08,18.70
2007,09,01,17,09,18.80
2007,09,01,17,10,18.80
2007,09,01,17,11,18.80
2007,09,01,17,12,18.70
2007,09,01,17,13,18.70
2007,09,01,17,14,18.70
2007,09,01,17,15,18.70
2007,09,01,17,16,18.70
2007,09,01,17,17,18.70
2007,09,01,17,18,18.60
2007,09,01,17,19,18.60